Vertical_Velocity
-1 -1 -0 -0 -1 -1 -0 -1 -1 -1 -2 -1 -0 -0 1 -0 0 -0 -1 -1 -0 -0 -2 -1 -1 -3 -2 -2 -3 -0 -1 1 -0 -0 -2 -1 -3 -6 -3 -3 -3 -4 0 -4 -4 1 -7
-1 -1 0 -1 -1 -1 -1 -0 -0 -2 -1 -2 -2 -4 -4 -3 -3 -2 1 -1 -1 -1 1 -0 -2 -2 0 -0 -1 -1 -3 -1 -0 0 -1 -1 0 -3 -1 -6 -7 -6 -4 9 4 5 -13
-1 -0 -1 -1 -1 -2 -0 -1 -1 -1 -0 -2 -2 -3 -3 -3 0 -1 -2 -2 -1 -0 1 -1 2 -2 -3 -1 1 3 0 -0 -2 -1 -3 -0 1 -4 -3 -5 1 -1 -14 -6 12 5 -17
-1 -2 -2 -2 -1 0 1 -0 -1 0 1 -1 -2 -3 -2 -3 0 -2 -0 1 -1 -1 -3 -1 1 -2 -0 2 0 -1 -1 -2 0 -0 1 0 2 -0 -4 -4 -15 -11 -16 -15 8 4 6
-1 -1 -1 -2 0 -0 -1 -2 -1 -2 -2 -0 -1 -3 -3 -2 -2 -1 -2 -1 -1 -1 -3 -1 -1 -2 -3 1 -1 1 2 1 -2 0 0 3 3 0 -1 -6 -5 -2 -17 -10 -8 5 2
-1 -1 -1 -1 -1 -0 -1 -0 0 -1 -2 -0 0 -2 -2 -1 -1 -1 -2 -0 3 1 -2 -0 4 -5 2 -2 -3 -4 -1 -0 -0 4 -0 4 3 -0 4 -2 -13 -13 -13 -10 -6 9 -2
-1 -1 -1 -1 -1 -1 -1 -1 -3 -1 -1 -1 -1 0 0 -1 -2 -1 -4 1 2 8 5 5 -2 -0 -0 -1 -0 -0 -1 0 3 -4 -2 1 5 1 -2 -5 -1 -3 -3 -4 25 21 -23
-1 -2 -1 -1 -1 -2 -1 -2 -1 0 -1 -1 -0 -0 -1 -2 -3 -3 -1 -2 -0 -1 -4 4 2 1 1 -1 -1 -1 1 0 1 2 -4 -3 8 -0 2 6 -0 8 -6 12 -7 7 -7
-1 -2 -1 -1 -1 -1 0 -0 -1 -1 1 -0 -0 -1 -1 -2 -2 -3 -1 -1 -4 -5 2 -2 1 1 0 -2 0 -2 -0 -1 3 4 4 0 13 7 -1 6 -7 4 -4 4 -7 14 3
-1 -0 -0 -1 -1 -1 -2 -1 -1 -2 -2 -2 -1 -1 -2 -0 1 -2 -4 -2 -4 -3 -4 -2 -2 1 -2 -2 3 0 -4 2 -8 -1 2 6 6 -2 -0 -0 1 -14 19 -2 3 -2 -13
-0 -0 -1 -1 0 -1 0 1 -0 -1 -1 -1 -2 -0 -2 -1 -0 -3 -3 -0 -3 1 -15 -12 -10 -6 1 -1 4 -4 -7 -12 -1 5 -7 15 -2 -7 -1 3 9 -6 -0 1 3 3 -2
1 -0 -1 -1 -1 -0 -1 -1 0 -1 -1 0 -1 -1 -2 -3 -1 -2 -1 -1 1 -3 -5 -13 -5 -6 6 -10 -13 -7 4 -7 -3 3 11 6 6 -3 -5 2 3 1 -2 -1 3 4 -8
-0 -0 -0 0 -1 -1 -2 -2 -2 0 -1 -1 -2 -2 -2 -3 -1 -5 -4 -6 -6 7 -9 -7 -2 -6 -0 2 1 2 5 13 12 -9 11 19 11 4 5 1 8 3 4 -6 -6 -2 -9
-0 -0 -1 0 -0 -1 -2 -2 -2 -0 -2 -2 -2 -2 -3 1 -1 -1 0 -3 -1 4 6 1 -11 -0 0 10 -4 3 -6 -5 -7 -7 -8 -15 0 0 17 -7 -7 15 2 5 -4 -3 -1
1 2 1 -0 -2 -1 -1 -1 -2 -1 -3 -3 -2 -2 -1 -3 -2 -2 -3 -5 3 -1 -2 -3 10 -1 3 3 -2 -2 -9 -2 -4 -0 5 -8 -15 2 12 6 2 10 3 7 -6 7 -1
0 -1 0 -1 -2 -2 -3 -1 -1 -2 -0 -1 -2 -2 0 -4 -2 -3 -2 1 -2 -2 -3 -4 -1 10 -4 2 9 5 6 3 -5 2 -10 -4 -34 7 13 13 5 0 4 5 8 -4 1
0 0 -1 -2 -2 0 -0 -2 -3 -3 1 -1 -2 -4 -1 -0 -1 -2 0 -1 -3 -3 -1 1 -1 -4 -2 -6 2 1 1 -6 -1 4 3 0 -1 -1 1 20 -6 25 1 -3 5 2 -2
-1 0 -3 -1 0 -0 -0 -2 -0 0 -2 -5 -2 -5 -4 -2 -4 -2 -1 -2 1 3 -2 -6 -3 -0 -3 -1 -1 1 5 4 -2 -4 -6 11 -3 -10 4 20 -2 3 1 4 5 -3 1
-0 -0 0 -1 -0 -2 -1 0 -0 1 1 1 1 2 -0 4 -3 -1 1 2 1 -2 2 -4 0 -4 -5 2 -16 4 1 3 1 0 -3 2 -2 -7 1 6 -7 2 1 2 3 1 13
0 -1 1 -2 -1 -1 -4 -2 -2 -2 -1 -2 -1 -5 3 3 2 2 -0 3 -4 -4 -6 -1 4 1 -0 10 10 2 3 6 3 4 8 4 4 1 -5 1 0 -3 10 2 13 10 9
-2 -2 -2 -2 -6 -4 -2 -4 -2 -2 -1 0 3 -3 -2 -9 1 2 1 2 1 3 -2 5 -8 -2 -10 -5 2 2 4 4 14 2 7 -0 -4 1 8 -2 2 4 7 7 4 4 3
-2 -0 -1 -2 -1 -4 -2 -2 -4 -2 -4 -2 -5 -2 3 -3 -3 -1 -6 -5 -0 -0 6 2 1 6 0 -0 -3 -11 -10 -2 -9 2 1 0 1 3 3 4 3 6 3 5 4 4 0
-2 -3 -1 -1 -2 -1 -1 -2 -3 -1 1 1 -4 -3 2 -2 -2 -1 -1 -6 -8 -1 -2 -11 -5 -1 3 3 1 2 3 -1 -3 -2 3 -5 -0 -3 -0 1 2 7 2 1 5 1 -3
-2 -4 -1 -3 -2 0 -1 -1 1 0 0 1 -0 -2 -3 -5 0 -1 -3 0 2 -3 4 -3 -4 -2 -1 -4 2 -3 -2 -4 -1 0 3 -3 -1 -1 -2 4 2 4 5 4 1 1 -0
-3 -3 0 -3 -0 1 0 2 1 -1 -2 -3 -4 -2 -1 -6 1 0 -2 1 0 -4 2 -14 -8 -6 4 -7 -0 -1 3 -0 -2 1 -2 -4 -2 1 1 6 2 1 1 1 -6 8 -1
-3 -4 -3 -3 -1 -2 1 3 -0 0 -1 -2 -2 -3 -1 -3 0 -0 0 -0 2 5 4 3 -6 -6 -1 -2 1 -1 -5 -7 -5 8 -0 -6 -1 0 1 -1 0 0 3 1 -4 0 -0
-3 -2 -1 -1 -4 -3 -1 -1 -0 -1 -3 -5 -2 -1 -4 -2 -1 -0 -2 1 1 -4 -6 -3 4 7 0 1 -3 -1 -1 -2 -3 -0 -3 -3 3 3 2 -0 4 0 2 2 1 1 5
-3 -2 -1 -2 -1 0 -1 -2 -2 -2 0 0 -3 -3 -1 -3 3 -3 -1 -2 -2 -8 -3 0 1 2 2 0 -0 -3 -1 -1 -2 -4 -3 -2 -1 -2 2 1 -1 2 9 2 3 5 -1
-3 -2 -2 -1 1 1 -0 -2 -3 -3 -2 -2 -3 -0 -5 -2 1 -2 -4 -2 -2 -1 -1 -1 -4 -8 -6 1 -1 -3 -4 -2 -2 -1 -1 -1 -2 -3 -4 1 2 -4 -3 -6 -5 -3 -0
Height
5840 5840 5839 5838 5837 5836 5835 5834 5833 5832 5831 5829 5827 5825 5823 5821 5819 5817 5814 5812 5809 5806 5803 5800 5797 5794 5791 5787 5784 5780 5777 5774 5770 5767 5764 5760 5758 5755 5753 5751 5746 5744 5743 5740 5735 5732 5729
5839 5839 5837 5837 5836 5835 5834 5833 5833 5831 5830 5828 5826 5824 5821 5819 5817 5813 5811 5808 5805 5802 5798 5795 5792 5789 5785 5782 5778 5774 5770 5766 5763 5758 5754 5750 5747 5743 5741 5739 5734 5733 5731 5728 5723 5719 5716
5837 5836 5836 5836 5834 5833 5832 5832 5831 5830 5829 5826 5824 5821 5818 5816 5813 5810 5808 5804 5800 5797 5794 5790 5787 5783 5779 5776 5771 5766 5763 5758 5754 5750 5745 5740 5736 5732 5729 5726 5721 5718 5717 5713 5710 5706 5698
5836 5835 5834 5834 5833 5832 5831 5830 5829 5828 5826 5824 5821 5819 5815 5813 5810 5807 5803 5800 5797 5793 5789 5785 5781 5776 5772 5768 5763 5759 5754 5749 5744 5740 5735 5728 5723 5719 5716 5711 5705 5703 5699 5698 5696 5689 5681
5834 5833 5832 5832 5831 5830 5830 5829 5827 5826 5824 5822 5819 5816 5813 5809 5806 5802 5799 5795 5791 5788 5783 5778 5775 5769 5765 5759 5754 5749 5744 5739 5734 5729 5723 5717 5711 5707 5702 5694 5689 5687 5681 5678 5675 5667 5659
5832 5831 5830 5830 5829 5828 5827 5826 5825 5823 5822 5819 5816 5813 5810 5806 5802 5798 5794 5789 5785 5781 5776 5770 5766 5762 5755 5751 5745 5738 5734 5728 5723 5718 5712 5705 5698 5694 5687 5679 5674 5668 5662 5659 5653 5649 5640
5829 5828 5828 5827 5827 5826 5825 5824 5822 5820 5817 5815 5812 5809 5806 5801 5797 5793 5788 5784 5779 5776 5769 5763 5757 5752 5745 5739 5733 5728 5722 5717 5711 5705 5699 5691 5686 5682 5672 5663 5658 5650 5642 5638 5638 5631 5619
5826 5825 5825 5825 5824 5824 5822 5821 5819 5817 5814 5811 5807 5804 5800 5796 5792 5787 5782 5776 5770 5765 5759 5754 5747 5742 5734 5728 5722 5717 5712 5706 5699 5692 5684 5676 5672 5665 5656 5647 5640 5632 5625 5621 5616 5612 5605
5823 5823 5823 5822 5822 5821 5819 5817 5815 5812 5810 5806 5803 5799 5795 5790 5785 5781 5775 5770 5763 5756 5749 5743 5737 5730 5724 5718 5711 5705 5699 5692 5686 5679 5670 5660 5658 5647 5637 5629 5622 5616 5604 5603 5596 5597 5592
5820 5821 5820 5819 5818 5817 5815 5812 5810 5808 5805 5801 5797 5793 5787 5783 5779 5773 5767 5760 5754 5746 5739 5734 5727 5720 5713 5706 5699 5692 5686 5679 5672 5664 5655 5644 5638 5629 5620 5612 5601 5593 5594 5585 5583 5579 5579
5817 5817 5817 5816 5814 5812 5810 5808 5805 5802 5799 5795 5790 5785 5780 5774 5769 5764 5758 5750 5743 5737 5728 5722 5714 5706 5700 5694 5686 5680 5672 5663 5656 5646 5637 5629 5619 5609 5602 5595 5586 5579 5577 5573 5571 5567 5565
5813 5813 5812 5811 5810 5808 5806 5803 5800 5797 5793 5788 5783 5778 5772 5767 5760 5755 5747 5740 5732 5727 5717 5710 5702 5696 5688 5679 5672 5664 5655 5645 5638 5629 5620 5611 5600 5589 5584 5580 5571 5565 5563 5560 5558 5556 5551
5810 5809 5807 5806 5805 5803 5800 5796 5793 5789 5785 5781 5775 5771 5765 5758 5752 5744 5737 5730 5724 5715 5706 5700 5691 5684 5675 5668 5658 5647 5637 5629 5616 5604 5600 5596 5588 5574 5565 5563 5557 5552 5550 5547 5546 5545 5544
5806 5804 5803 5801 5799 5797 5794 5790 5786 5783 5777 5773 5768 5762 5756 5749 5742 5734 5727 5720 5713 5705 5697 5688 5679 5670 5661 5651 5642 5630 5618 5607 5597 5584 5574 5569 5570 5568 5546 5545 5543 5542 5539 5539 5534 5536 5537
5801 5800 5798 5796 5794 5791 5788 5784 5780 5775 5770 5765 5759 5753 5747 5740 5732 5724 5717 5709 5701 5693 5684 5676 5667 5656 5648 5636 5623 5610 5599 5587 5575 5565 5557 5542 5547 5549 5534 5532 5528 5528 5527 5528 5523 5527 5527
5797 5795 5793 5790 5788 5785 5782 5778 5773 5768 5763 5757 5751 5744 5736 5729 5721 5713 5706 5698 5689 5680 5671 5662 5653 5644 5633 5622 5609 5590 5577 5566 5553 5544 5531 5522 5514 5531 5525 5516 5514 5511 5513 5515 5515 5516 5517
5792 5790 5787 5784 5782 5779 5776 5771 5766 5760 5754 5749 5742 5734 5726 5719 5711 5703 5695 5687 5677 5668 5660 5650 5637 5627 5615 5602 5591 5576 5562 5545 5535 5527 5514 5502 5495 5505 5502 5499 5496 5501 5498 5501 5503 5504 5507
5786 5783 5780 5778 5776 5772 5767 5763 5758 5751 5746 5740 5733 5725 5717 5709 5702 5692 5684 5675 5667 5657 5646 5634 5623 5611 5596 5583 5572 5557 5545 5526 5514 5503 5497 5491 5480 5478 5485 5483 5480 5481 5483 5487 5488 5490 5494
5779 5776 5774 5772 5769 5764 5759 5754 5749 5743 5738 5731 5723 5715 5708 5699 5691 5682 5673 5664 5655 5644 5634 5620 5607 5594 5580 5563 5547 5537 5523 5510 5497 5485 5476 5472 5466 5462 5467 5467 5466 5467 5470 5472 5475 5478 5483
5773 5770 5767 5764 5761 5756 5751 5745 5740 5734 5727 5720 5712 5705 5697 5688 5681 5671 5661 5652 5640 5632 5620 5607 5593 5578 5564 5550 5530 5516 5504 5496 5483 5472 5462 5456 5454 5452 5451 5453 5454 5458 5461 5462 5463 5466 5469
5766 5763 5760 5756 5753 5748 5742 5736 5730 5724 5716 5709 5702 5694 5686 5677 5668 5659 5651 5640 5629 5618 5605 5591 5576 5558 5542 5528 5517 5504 5488 5479 5471 5456 5450 5444 5444 5442 5442 5440 5443 5444 5449 5451 5453 5455 5457
5757 5755 5752 5748 5744 5739 5733 5727 5720 5714 5707 5700 5692 5684 5676 5667 5658 5648 5638 5628 5617 5602 5590 5576 5560 5542 5524 5508 5492 5481 5469 5464 5455 5449 5441 5438 5436 5436 5434 5435 5436 5437 5439 5440 5440 5443 5445
5751 5747 5744 5740 5735 5730 5725 5719 5712 5705 5697 5689 5681 5674 5667 5658 5647 5637 5627 5614 5601 5588 5572 5556 5542 5528 5510 5496 5481 5468 5458 5452 5448 5443 5439 5435 5433 5431 5432 5433 5433 5435 5434 5434 5434 5434 5435
5742 5739 5734 5730 5726 5721 5716 5709 5703 5696 5689 5681 5673 5666 5658 5648 5636 5625 5614 5602 5587 5571 5556 5539 5525 5509 5496 5482 5471 5459 5451 5449 5445 5441 5437 5434 5432 5431 5431 5431 5432 5432 5431 5429 5428 5428 5428
5734 5730 5725 5722 5717 5712 5706 5700 5694 5686 5679 5671 5663 5656 5647 5637 5625 5613 5601 5587 5572 5554 5537 5518 5508 5495 5482 5472 5464 5456 5450 5448 5443 5440 5435 5433 5431 5430 5429 5428 5428 5428 5427 5425 5423 5425 5423
5724 5721 5717 5713 5708 5704 5698 5691 5684 5677 5670 5661 5652 5645 5636 5625 5612 5600 5587 5575 5560 5544 5528 5511 5494 5481 5472 5465 5455 5450 5444 5443 5440 5440 5435 5433 5432 5431 5429 5428 5426 5426 5425 5422 5420 5419 5417
5714 5711 5708 5703 5699 5694 5689 5682 5676 5668 5660 5651 5642 5634 5624 5612 5600 5587 5575 5559 5545 5529 5515 5502 5489 5476 5465 5459 5452 5448 5445 5443 5439 5437 5435 5435 5434 5432 5430 5428 5426 5423 5421 5419 5417 5417 5413
5705 5702 5698 5694 5689 5684 5678 5672 5666 5658 5651 5641 5632 5622 5612 5600 5587 5573 5560 5545 5529 5513 5502 5490 5479 5468 5461 5455 5450 5446 5444 5443 5441 5439 5438 5436 5434 5432 5430 5425 5422 5419 5419 5415 5413 5411 5407
5698 5694 5690 5686 5681 5674 5668 5662 5655 5648 5640 5630 5620 5610 5598 5586 5573 5559 5545 5531 5516 5503 5490 5478 5469 5461 5456 5451 5447 5445 5444 5444 5443 5441 5439 5438 5435 5431 5429 5426 5421 5416 5414 5412 5409 5406 5404